Theta_e
301 301 301 301 301 301 302 301 300 299 299 299 301 302 302 302 298 294 294 296 296 297 297 296 299 300 299 300 301 300 300 303 305 302 300 300 301 303 305 303 303 303 303 304 304 304 305 306 305 306 307 308 309 309 308 308 308 307 307 307 307 307 306 306 306 306 306 307 309 307 306 306 306 306
301 302 301 302 301 301 300 300 300 299 299 298 299 299 299 302 300 296 295 295 295 298 297 297 297 299 298 299 300 299 299 304 305 301 300 300 301 304 303 301 301 302 302 302 302 303 304 305 306 306 307 308 308 307 307 307 306 306 306 306 306 305 305 305 306 306 305 305 305 306 306 306 306 306
301 300 299 299 299 300 300 300 300 300 299 298 297 297 299 300 301 298 297 294 296 298 298 299 298 298 299 298 298 298 299 302 303 301 301 299 302 302 301 301 301 301 301 301 303 304 304 304 304 305 306 307 307 306 306 306 304 305 305 304 304 304 304 305 305 306 305 306 306 306 305 306 306 306
300 300 299 299 299 299 300 300 300 300 300 300 298 298 297 296 297 298 295 295 295 297 299 299 299 296 298 298 297 298 298 300 301 301 300 300 301 300 300 300 301 301 301 301 301 301 302 302 303 304 305 305 305 305 305 303 303 303 303 303 303 302 303 304 305 305 305 306 306 306 305 305 305 305
300 300 299 299 299 300 300 299 299 299 299 298 298 298 298 297 296 296 295 295 295 296 296 296 298 298 297 297 295 297 298 299 299 300 300 300 300 299 299 300 300 300 300 301 300 300 300 301 303 303 303 303 303 303 301 300 302 302 302 301 301 302 302 303 303 303 303 305 305 305 304 303 304 303
300 300 299 298 299 299 299 299 298 298 297 297 297 296 296 296 296 296 295 294 293 293 297 298 296 297 295 297 295 297 297 298 300 299 298 299 299 299 300 299 300 300 301 300 300 300 300 299 300 300 299 299 299 300 299 299 299 300 300 298 297 299 301 302 302 303 303 304 303 302 302 303 303 303
299 300 300 298 299 300 299 298 298 298 297 297 296 295 296 295 295 295 295 294 292 292 294 294 295 297 296 297 297 296 297 298 297 296 298 298 299 300 300 300 300 299 300 300 300 300 299 299 299 299 299 299 299 299 299 299 299 298 299 298 298 299 300 300 301 302 303 302 302 302 302 303 303 303
299 299 298 298 299 300 298 297 296 296 296 296 296 295 295 295 295 295 295 294 294 294 294 296 295 296 296 298 295 295 298 296 298 297 297 298 299 300 299 299 300 300 300 300 300 299 299 299 299 299 299 299 299 298 298 298 298 298 298 298 298 299 299 299 299 300 301 300 300 300 301 302 303 304
299 300 299 298 298 298 297 296 295 295 295 295 295 295 295 295 295 296 295 295 294 294 295 295 295 294 294 295 296 296 296 297 297 298 298 297 298 299 300 300 300 301 300 300 299 299 299 299 299 299 299 298 298 298 298 298 298 298 299 299 299 298 298 299 300 300 300 299 299 300 301 301 302 303
300 300 299 298 297 297 296 295 294 294 294 294 294 294 294 294 294 294 294 295 294 294 294 296 296 296 296 297 297 296 296 295 296 297 298 299 299 298 298 299 300 300 300 300 300 299 299 299 299 299 298 298 297 298 298 298 298 298 299 299 298 298 297 298 299 299 298 299 299 299 299 299 300 301
300 299 299 298 297 297 296 295 294 294 294 294 294 295 294 293 294 294 294 294 294 294 294 292 293 293 294 294 295 296 295 295 295 295 296 296 298 299 297 297 299 300 300 300 298 299 299 299 299 298 297 297 298 298 298 299 299 299 298 298 297 296 297 297 297 298 299 299 298 298 297 297 298 299
300 299 298 297 297 297 296 296 294 294 294 294 294 293 293 293 294 294 293 293 293 294 294 295 294 292 293 295 294 294 295 297 295 296 294 293 295 296 297 297 297 299 300 299 299 299 299 299 299 297 297 298 298 299 299 299 299 299 298 297 297 297 297 297 297 298 298 298 298 297 297 297 298 298
299 299 298 297 296 299 300 299 298 296 296 294 294 293 294 294 294 293 293 293 293 292 294 294 291 292 293 293 293 294 295 295 295 295 294 294 296 295 295 298 299 299 297 298 299 299 300 298 299 299 298 299 300 299 299 299 299 299 298 297 297 297 297 297 298 298 298 298 298 297 297 297 297 297
298 298 297 299 302 304 303 301 298 297 298 298 296 294 294 295 293 293 293 293 293 293 294 295 294 295 295 294 293 293 294 295 295 295 295 294 295 295 295 297 300 299 298 297 297 298 300 298 298 298 298 299 300 299 299 299 299 298 297 297 297 297 297 297 297 297 297 297 297 297 297 297 297 297
298 297 297 298 304 306 305 301 297 296 296 296 296 296 297 297 296 293 293 293 293 296 295 293 292 293 293 294 294 294 295 295 295 295 294 294 294 294 292 292 297 300 298 297 295 297 300 299 297 297 298 299 299 299 299 298 297 297 297 297 297 297 297 297 297 296 296 296 296 296 296 296 297 297
299 297 296 298 303 302 301 299 298 298 296 295 295 294 295 295 296 296 297 296 293 293 294 292 293 293 293 294 294 294 294 296 296 295 294 294 294 294 293 293 293 299 299 296 295 295 300 299 298 297 298 299 299 299 298 297 297 296 297 296 296 296 296 296 296 296 296 296 296 296 296 296 296 296
298 297 297 298 300 300 303 301 296 298 298 297 296 295 296 295 294 292 292 295 298 295 294 294 293 293 294 294 296 297 298 296 295 295 295 296 295 294 294 295 295 298 299 296 295 294 297 298 296 295 298 299 299 299 298 297 296 296 296 296 296 296 296 296 296 296 296 296 296 296 296 296 296 296
298 297 298 299 299 297 302 297 295 295 295 297 297 297 297 296 299 296 292 292 293 295 297 296 296 296 295 297 297 299 298 295 296 296 296 297 295 296 296 296 296 298 298 296 294 293 297 298 296 295 298 299 299 299 298 296 296 296 296 296 296 295 295 295 295 295 295 295 295 295 296 295 295 295
298 297 299 300 299 297 299 297 295 295 295 295 294 294 295 296 296 297 299 298 297 298 297 296 297 297 295 297 298 297 296 296 297 297 297 296 295 295 295 297 298 298 299 297 294 292 295 298 295 296 297 298 297 299 297 296 296 296 296 296 295 295 295 295 295 295 295 295 296 295 295 295 294 294
298 298 299 299 297 296 299 299 294 296 295 293 293 294 294 294 295 296 298 295 295 298 298 297 297 297 296 295 297 297 296 296 296 296 297 296 295 294 295 295 296 297 299 298 295 293 294 297 294 295 297 297 296 298 298 297 296 296 296 295 295 295 295 295 294 294 295 295 295 295 295 294 294 294
298 298 299 298 296 295 297 297 292 293 294 293 294 295 294 294 295 297 296 294 292 293 292 291 292 292 291 291 292 291 292 294 295 294 295 296 294 294 293 294 295 296 297 297 295 294 292 297 295 294 296 296 295 296 298 299 297 296 295 295 295 295 295 294 294 294 295 295 295 295 295 294 294 295
299 299 302 300 296 295 296 295 292 292 294 293 293 293 293 293 293 296 294 293 295 292 292 292 291 291 291 291 291 292 292 292 294 296 296 298 296 295 294 292 294 294 296 297 296 294 295 296 295 293 294 294 297 297 298 298 298 297 296 295 295 295 295 294 293 294 295 295 295 295 295 295 294 294
300 299 302 302 298 297 296 293 293 291 294 293 294 294 293 292 292 294 293 294 293 294 295 295 295 295 294 297 296 296 294 293 296 297 298 297 296 295 295 294 293 293 296 297 296 294 295 295 296 293 291 291 294 297 297 297 297 298 298 298 297 296 295 294 293 294 295 295 295 296 295 295 294 294
299 299 300 301 294 294 293 292 292 291 292 294 294 293 292 291 290 291 290 294 293 294 294 293 294 295 294 294 294 294 294 295 299 298 297 297 297 296 295 294 293 292 294 296 295 294 294 293 293 296 293 288 288 294 295 296 297 298 299 297 297 296 296 295 295 295 294 295 295 295 295 295 294 293
299 298 299 300 297 293 292 292 292 291 291 293 294 293 293 293 293 291 293 297 296 294 296 295 295 295 295 294 294 295 296 297 297 298 297 297 297 297 295 294 294 294 296 298 294 296 294 294 293 294 293 293 292 291 293 294 297 298 298 297 297 297 297 296 296 296 295 295 295 295 295 295 295 294
299 299 299 299 298 293 292 292 292 291 291 291 296 294 291 290 289 293 294 294 294 293 294 293 293 294 294 295 296 296 297 297 297 297 297 297 296 296 297 296 295 293 296 299 293 296 293 294 294 289 292 291 291 292 291 293 297 297 297 298 297 297 297 295 295 296 296 296 296 296 295 295 295 294
300 300 300 300 298 293 292 292 292 291 290 291 294 291 289 289 289 293 293 293 292 293 293 293 294 293 293 293 295 295 296 297 297 297 297 297 296 296 297 296 296 297 298 299 297 297 294 293 295 291 289 291 289 291 292 291 293 296 296 296 297 297 297 296 295 295 295 295 296 295 295 295 294 294
300 299 299 298 295 293 292 292 291 291 291 292 291 290 289 289 290 294 292 291 292 292 291 292 292 293 293 292 293 295 296 296 297 296 296 296 296 296 296 296 295 296 296 296 296 296 295 294 294 295 293 289 288 289 288 292 294 294 293 296 296 297 296 296 295 295 296 296 295 296 295 294 295 295
299 296 294 294 293 292 292 291 291 290 290 290 290 289 289 292 292 292 292 291 291 291 291 292 292 292 293 294 295 296 295 295 295 295 296 297 297 296 296 296 297 298 298 298 297 296 295 296 294 294 293 293 289 290 290 290 291 293 294 293 293 294 295 296 295 294 295 295 294 294 294 294 294 295
294 293 292 293 292 292 292 293 292 292 292 290 289 289 291 293 291 291 290 291 291 291 291 291 291 293 293 294 294 294 294 294 295 295 296 296 298 296 295 295 297 298 299 298 296 296 295 295 295 294 291 293 292 289 289 289 290 293 294 294 293 295 296 295 294 294 294 293 293 293 294 295 295 295
296 294 294 294 292 293 291 292 292 292 291 291 292 292 293 292 291 291 291 291 292 292 291 292 292 292 292 293 293 294 294 294 295 295 295 294 295 295 294 294 296 297 297 298 298 296 295 295 294 293 290 290 290 289 289 291 290 292 294 294 293 290 293 294 294 294 293 293 293 294 294 295 295 295
295 295 292 292 294 294 293 292 292 292 292 291 290 291 291 291 291 291 291 291 291 291 292 292 292 292 293 293 294 293 293 294 294 294 294 294 295 294 293 295 295 294 295 297 298 297 294 296 295 294 293 289 289 289 289 292 292 293 293 294 293 294 294 293 293 294 293 292 292 292 293 294 293 294
292 291 291 291 291 292 291 289 292 291 291 291 291 291 290 290 290 291 292 292 292 292 292 292 293 292 292 293 293 292 293 294 294 293 293 293 294 294 292 293 293 292 292 293 295 295 295 295 296 294 294 290 289 288 288 290 291 294 294 293 293 293 293 294 294 293 294 292 291 291 291 293 293 294
291 290 290 290 290 290 291 291 291 291 291 291 290 290 289 290 290 290 290 291 292 291 291 292 291 292 292 292 293 292 293 294 294 293 291 294 293 294 293 293 294 293 290 292 293 293 293 294 294 295 297 297 296 292 291 291 291 292 294 294 294 292 293 294 294 294 293 292 291 289 289 290 292 294
290 289 289 288 289 289 291 290 291 290 290 289 288 290 290 290 290 289 291 291 290 290 288 290 291 291 291 291 292 292 293 293 294 294 292 291 292 293 292 292 293 293 293 293 293 293 291 292 292 293 294 294 295 298 294 296 293 291 292 293 293 292 292 293 292 293 294 294 293 290 289 290 291 293
290 290 290 288 288 289 289 289 289 289 290 290 290 290 288 289 289 289 289 291 291 290 290 290 289 290 290 291 291 292 291 289 292 293 293 292 292 292 291 291 291 292 291 292 292 292 291 291 291 291 290 291 290 290 293 295 293 294 290 290 292 292 292 292 293 294 294 293 293 292 288 287 289 292
290 290 291 291 290 289 288 289 288 289 290 290 290 290 290 290 290 290 291 291 292 290 291 289 289 290 289 289 289 288 289 288 290 291 291 293 292 291 291 290 290 290 291 293 292 291 291 291 291 290 290 289 288 288 290 295 292 293 295 291 289 290 290 291 292 292 293 293 293 292 288 288 289 291
290 290 291 291 292 290 290 290 288 288 288 289 289 289 290 291 292 292 291 291 290 289 289 289 289 289 290 289 288 290 290 290 290 290 290 291 290 291 291 291 291 291 291 292 292 291 291 291 291 291 290 288 288 288 289 291 291 293 293 293 290 289 292 291 289 289 290 293 292 292 292 289 289 291
293 291 290 291 291 291 290 290 288 289 290 290 289 290 290 291 291 291 289 290 291 290 289 289 289 289 289 291 290 289 290 290 289 289 290 291 291 292 292 290 290 291 290 291 292 293 292 291 292 292 290 289 288 289 289 288 289 292 292 291 292 291 290 290 289 290 291 290 291 292 292 292 291 290
291 291 291 291 291 292 292 292 291 291 291 291 291 292 292 290 291 290 290 289 288 289 289 289 288 289 289 290 289 289 290 291 291 291 290 291 290 290 291 289 290 290 289 289 289 293 292 292 292 291 290 290 290 291 289 288 287 289 291 295 291 292 290 291 289 289 289 291 292 289 289 290 288 292
289 290 290 291 291 291 291 291 292 292 292 292 292 291 291 292 292 291 290 290 288 289 288 289 289 289 289 290 289 289 289 289 290 290 290 289 288 287 286 284 288 288 289 289 291 291 293 294 290 284 286 289 289 289 288 290 290 291 291 292 292 291 291 291 292 292 289 291 291 289 288 288 287 290
290 290 291 290 290 290 291 291 291 292 292 292 292 291 291 290 291 290 290 288 290 288 289 289 289 289 289 289 289 288 289 290 290 290 289 289 290 289 286 286 289 289 288 290 289 291 295 292 290 290 291 289 290 291 290 288 288 290 290 291 292 292 291 290 290 290 294 292 289 288 287 288 289 289
290 291 291 290 290 290 290 291 291 291 291 291 291 291 290 290 289 289 289 288 289 288 289 289 289 289 289 289 289 289 289 289 289 289 289 288 288 290 290 289 289 289 290 289 291 289 289 290 290 290 289 289 288 287 289 288 288 288 289 291 290 291 292 291 291 290 289 289 290 290 290 288 287 286
291 291 291 291 290 290 290 290 290 290 291 291 291 290 289 289 288 289 289 289 289 289 289 289 289 289 289 289 288 288 289 290 290 289 289 289 288 289 289 289 287 288 288 287 288 289 289 290 289 289 290 290 288 289 289 288 289 289 289 289 289 290 290 291 292 292 291 291 291 289 289 288 288 288
290 291 291 290 290 290 290 290 289 289 289 289 289 289 289 289 289 289 289 288 289 289 289 289 289 289 289 288 288 288 289 289 289 289 289 289 289 288 287 288 288 287 288 287 287 290 290 289 289 289 289 289 287 288 287 286 287 288 288 288 288 289 290 289 289 290 292 293 292 290 289 289 289 288
Wind_Speed
6 5 6 6 5 4 4 4 3 3 3 3 5 5 8 8 8 6 5 4 3 1 1 2 1 4 4 3 3 3 3 4 5 4 5 6 6 8 12 12 12 13 13 14 14 14 15 16 17 17 18 19 19 19 19 19 19 19 20 21 21 20 19 19 19 20 21 23 24 24 25 25 26 27
5 6 6 5 6 4 5 5 4 4 4 4 4 4 3 6 9 6 7 5 2 2 1 0 1 2 3 2 3 2 3 6 7 5 6 7 6 10 11 12 12 13 13 13 13 14 15 16 17 18 19 19 19 19 19 19 19 20 21 21 20 18 18 18 19 20 22 23 25 25 25 26 27 28
6 7 7 5 6 4 5 5 5 4 5 5 4 3 4 4 6 8 6 5 3 1 1 1 2 1 3 2 3 3 3 6 7 6 6 6 9 11 7 11 13 13 14 13 13 15 14 14 15 17 18 19 19 19 20 20 19 20 21 19 18 18 18 18 18 20 23 25 27 27 28 27 28 27
6 7 7 6 6 4 5 5 5 5 5 4 5 4 4 3 4 7 6 5 5 3 2 2 3 1 2 2 4 5 5 5 7 5 5 6 9 6 6 9 12 12 14 14 13 14 14 13 15 15 17 18 19 20 20 18 17 18 17 18 17 16 17 17 17 19 23 25 26 27 28 28 29 28
6 7 7 6 5 4 7 5 5 5 5 6 5 4 5 5 3 6 6 6 6 1 1 2 2 2 2 2 3 5 6 7 7 7 5 6 6 6 5 6 9 11 13 13 13 14 14 13 15 16 16 16 17 17 17 18 17 16 17 18 16 15 17 18 17 18 22 26 28 28 28 28 27 28
5 6 8 6 5 4 7 6 6 5 5 5 6 5 4 5 4 2 5 4 4 4 0 1 1 2 2 3 1 4 5 7 6 7 7 6 5 5 5 5 7 12 12 13 14 14 14 14 14 14 15 16 16 17 17 17 18 17 18 18 18 19 18 18 18 19 22 26 27 28 28 27 28 27
6 7 7 6 5 5 7 5 5 5 6 5 6 4 4 5 4 4 4 5 4 6 2 1 2 2 2 1 2 3 2 3 3 5 6 6 6 5 4 5 5 10 13 13 12 13 13 14 14 14 15 15 15 16 16 17 17 18 18 19 19 19 19 19 17 18 21 24 25 25 26 26 27 27
7 8 7 6 6 6 8 6 5 4 5 6 5 5 4 5 5 5 5 4 5 3 4 1 1 1 3 2 2 2 2 3 5 3 6 6 6 6 5 5 5 8 12 13 12 12 13 13 14 14 14 15 15 16 16 17 18 18 18 19 19 19 20 20 18 18 19 21 22 23 25 26 26 27
7 7 7 7 6 7 8 5 6 5 7 5 6 5 4 5 4 5 5 5 4 6 5 2 1 1 1 1 3 2 4 5 4 4 4 5 7 8 7 4 4 7 11 12 11 11 12 13 14 14 15 16 16 16 17 17 18 18 18 19 19 19 20 20 19 20 19 21 22 24 27 26 27 27
7 7 8 7 7 7 8 6 5 5 7 6 6 6 4 4 5 6 5 5 5 5 4 3 2 2 2 2 2 1 1 2 4 5 6 6 3 4 9 7 5 4 4 5 6 8 10 12 14 14 14 15 16 16 17 17 18 18 18 19 19 19 20 19 19 20 20 21 21 24 25 25 25 26
7 7 7 7 6 7 7 8 7 7 6 6 7 6 6 4 6 5 4 4 4 4 4 1 1 1 1 0 2 2 1 2 2 2 5 6 5 4 4 8 6 5 6 8 10 10 9 10 10 12 14 15 16 17 17 18 18 18 18 18 18 19 19 19 19 20 21 21 20 20 20 20 22 24
6 7 7 7 7 7 7 8 7 7 7 6 7 5 5 5 6 5 4 4 4 4 3 2 2 0 1 2 2 3 3 2 1 1 1 5 6 7 6 4 6 6 5 6 7 8 9 9 11 13 14 15 16 17 16 17 18 18 18 18 19 20 19 19 19 20 21 21 20 20 20 21 23 23
6 6 6 6 6 6 7 9 8 7 7 8 7 5 5 6 6 5 4 4 4 3 3 2 1 0 0 2 2 4 2 0 3 2 1 3 4 5 6 8 5 3 5 6 6 7 5 7 7 6 7 9 13 13 16 14 16 17 18 19 20 20 20 19 19 19 20 21 20 20 20 20 22 20
5 7 7 6 9 9 10 10 9 9 8 7 8 9 7 7 6 5 5 4 3 3 4 3 3 1 1 2 2 2 4 3 3 2 1 3 5 5 6 7 3 3 3 7 8 8 5 5 8 6 7 7 8 8 9 9 13 18 20 19 19 20 20 20 19 19 19 21 21 20 19 19 20 20
7 5 5 6 7 8 8 8 10 9 9 8 8 10 8 6 8 7 5 4 4 4 4 3 2 2 2 3 2 3 4 2 3 3 2 3 3 3 4 5 8 1 3 5 6 8 6 3 7 8 7 7 8 9 9 16 19 20 20 20 20 20 20 20 20 19 19 20 20 20 20 19 19 21
7 7 6 5 4 6 7 7 7 7 8 8 8 8 8 8 7 6 5 5 4 4 4 3 3 3 3 3 2 3 2 4 3 2 2 3 2 4 4 4 6 4 2 5 5 9 7 3 6 8 7 7 7 9 15 19 19 20 20 19 20 20 20 20 20 19 19 20 20 20 20 19 19 20
8 7 6 6 4 5 10 7 7 7 6 5 5 5 5 5 6 7 5 4 5 7 5 5 4 6 4 4 4 3 3 2 4 4 3 3 3 2 4 5 4 7 3 4 5 7 9 4 6 8 8 7 7 10 14 18 19 19 19 19 19 19 19 20 20 19 20 20 19 19 19 19 20 22
8 8 8 7 6 4 5 6 7 6 6 5 4 3 4 4 5 5 7 7 6 6 5 6 5 6 5 5 4 4 3 3 3 3 4 3 4 5 6 8 7 7 2 2 3 5 7 6 6 8 8 7 8 9 14 18 18 18 19 19 19 19 19 19 19 19 20 20 19 18 19 19 20 21
9 9 8 8 8 8 7 7 8 7 7 7 5 5 5 5 4 4 5 5 6 5 4 5 6 4 6 6 5 4 4 6 5 3 4 4 4 6 7 6 5 5 2 2 1 5 8 5 7 9 8 8 9 9 13 16 16 17 18 19 18 18 18 18 19 19 20 20 19 18 17 17 19 20
8 8 8 8 8 8 9 9 12 9 7 7 7 6 5 4 3 4 2 2 4 5 6 6 6 5 5 5 6 5 4 4 4 3 3 2 2 3 4 5 6 5 2 1 2 3 7 5 5 10 9 7 9 10 9 14 16 16 17 17 18 18 17 18 19 19 19 19 19 18 17 17 19 20
8 7 7 8 7 8 8 9 12 10 9 7 7 7 6 4 4 5 2 2 3 6 7 6 7 8 8 8 9 10 10 7 3 1 1 3 2 2 4 5 5 7 5 2 1 2 7 5 3 7 9 9 9 8 8 8 13 15 15 16 18 17 17 18 19 18 19 20 19 18 17 18 19 20
7 8 13 9 8 8 8 11 13 13 10 7 7 6 6 5 5 6 4 2 1 1 3 6 7 8 9 9 9 10 10 9 5 4 2 3 0 3 2 3 4 7 5 2 2 4 6 7 2 4 7 9 6 7 7 9 11 14 11 14 16 16 17 18 18 18 19 20 20 19 18 17 19 13
6 6 9 12 9 9 9 14 13 13 11 7 7 7 6 6 6 7 6 5 4 1 1 3 3 5 4 4 4 5 8 7 6 5 5 1 2 4 5 3 3 5 5 1 2 4 6 6 4 1 6 4 8 6 6 10 10 9 8 9 11 15 16 17 16 16 18 19 20 19 18 16 16 11
6 6 6 8 11 12 12 13 14 14 13 9 7 6 6 6 7 5 5 5 4 4 3 3 3 5 3 3 3 3 4 4 5 5 5 4 4 4 5 4 2 3 4 1 2 3 4 1 6 3 0 4 6 8 9 9 9 9 7 9 8 13 15 15 13 15 16 17 19 18 18 17 13 10
8 7 6 5 10 12 10 11 13 14 14 11 7 7 6 8 5 6 5 5 5 3 2 2 2 3 3 3 3 3 4 1 3 3 4 4 5 5 5 5 4 5 6 3 4 2 4 3 5 4 3 2 6 7 8 9 9 7 9 9 9 10 10 10 10 11 13 16 16 16 14 16 14 10
7 8 8 7 10 14 13 12 13 14 14 13 7 9 10 6 7 7 4 4 3 2 1 1 2 2 3 4 5 5 4 4 2 2 3 5 5 5 6 6 6 4 7 1 3 2 3 5 3 4 5 4 8 7 8 8 7 8 9 9 9 10 8 10 10 10 10 10 10 12 13 14 14 12
9 8 8 7 11 14 15 14 14 14 15 11 9 11 8 8 9 6 4 3 3 2 1 1 4 4 3 3 4 5 5 5 4 4 5 3 4 5 5 6 7 8 9 7 3 3 2 5 5 4 5 5 6 8 7 8 10 9 9 10 11 9 9 9 10 11 10 10 11 16 13 12 13 12
8 8 8 8 12 13 15 15 15 15 13 10 14 11 10 10 8 5 4 3 3 2 2 3 4 5 4 3 5 5 4 4 5 6 6 6 4 4 5 6 7 8 9 7 5 3 4 4 6 6 5 4 5 5 7 8 7 9 11 11 9 9 9 8 10 10 9 9 9 10 9 9 9 10
8 10 13 12 12 13 14 16 15 11 12 15 12 10 10 9 5 5 5 4 3 3 5 4 4 5 7 6 6 4 4 5 4 4 6 5 4 4 5 7 7 6 5 3 3 3 4 4 6 7 6 3 3 5 3 6 7 9 10 11 12 13 11 9 10 10 11 9 10 11 10 9 9 8
12 13 13 14 13 12 11 8 6 7 9 11 10 10 9 6 6 6 5 4 4 5 5 5 6 6 4 4 3 4 3 4 5 3 4 5 6 4 6 8 7 7 6 3 1 2 1 2 3 5 6 8 3 4 3 3 6 9 10 10 10 10 5 10 11 10 11 11 11 11 10 9 8 8
7 9 9 8 9 7 11 11 9 7 6 6 5 5 5 6 6 6 6 6 6 5 5 5 5 5 4 4 4 4 3 5 4 2 4 4 4 3 2 3 6 6 8 9 4 1 2 3 2 2 4 6 7 6 4 2 6 8 9 9 10 10 12 11 11 11 11 11 10 10 8 9 9 9
6 6 4 5 4 4 4 2 2 3 4 5 6 5 5 5 4 4 2 1 3 4 4 4 3 5 4 5 5 4 4 5 5 2 3 3 3 1 2 3 5 4 6 8 9 8 5 4 3 2 4 4 4 6 4 4 6 6 8 8 9 10 9 11 11 11 11 11 9 11 11 10 11 10
5 6 6 6 5 6 6 3 4 4 4 5 5 6 5 4 4 4 4 5 6 6 4 5 5 5 4 5 4 4 5 6 4 1 2 3 3 1 1 3 5 4 5 7 8 7 7 8 7 6 4 4 5 5 2 4 4 7 6 9 9 10 11 11 10 11 11 9 10 11 12 11 10 10
6 6 7 7 6 7 6 7 6 7 6 6 5 5 5 5 5 5 5 5 6 4 5 5 4 5 4 5 5 4 5 6 4 2 3 3 1 1 3 4 5 3 2 5 6 5 7 7 8 9 6 3 5 6 5 2 4 5 7 7 7 10 11 11 12 12 10 8 9 13 13 13 11 10
6 6 6 6 6 7 7 7 8 7 6 5 5 6 6 6 7 5 5 6 5 5 3 4 5 5 4 6 5 5 5 5 5 2 2 2 2 3 3 3 5 4 4 5 6 4 5 6 6 7 8 8 10 4 6 5 3 5 6 7 8 8 10 11 11 11 11 9 8 10 11 12 14 14
7 7 7 6 6 7 7 7 7 7 8 6 7 6 4 5 7 7 7 7 5 5 4 4 4 4 5 6 6 5 5 4 4 4 3 3 3 2 2 3 4 4 3 4 5 3 3 3 4 5 5 7 5 5 7 5 4 4 4 7 7 7 10 11 11 10 9 11 9 8 10 13 13 14
7 7 8 8 8 8 7 7 7 7 7 7 7 6 8 6 8 8 6 4 5 5 7 3 4 4 3 4 5 3 3 3 3 4 4 3 2 2 3 4 3 2 4 5 3 3 2 2 2 3 5 4 5 5 7 6 3 4 3 5 7 6 7 10 10 11 10 9 10 9 9 10 12 13
7 8 8 8 8 7 7 6 7 7 6 5 6 6 6 6 5 4 4 5 5 6 4 4 4 3 4 4 3 4 3 2 3 3 3 3 2 2 2 2 2 3 3 5 4 3 2 2 2 2 2 2 4 5 7 5 6 2 6 4 6 7 7 8 9 8 11 10 10 9 7 9 12 11
7 8 8 7 7 6 7 7 7 7 6 6 6 6 6 6 5 4 5 5 5 6 5 3 5 5 4 5 4 3 3 2 3 3 3 3 3 4 4 2 3 2 2 5 5 3 1 1 3 2 2 2 3 5 4 6 5 6 11 14 4 5 6 7 7 7 8 9 11 9 7 6 9 12
7 6 6 6 6 6 6 6 6 6 6 6 6 6 6 7 6 6 6 6 5 5 5 5 4 3 3 3 3 2 3 6 6 3 4 3 2 4 4 1 2 1 1 3 4 5 4 3 2 4 4 3 4 4 3 5 6 6 6 7 6 2 5 5 6 6 7 10 9 8 8 9 10 9
8 8 7 7 7 8 7 6 6 6 6 6 6 5 6 6 6 6 6 5 4 4 4 4 3 4 4 3 3 3 4 3 3 4 4 3 3 2 2 2 1 1 1 3 4 5 5 2 3 5 5 4 3 3 2 2 4 6 7 9 15 7 5 6 5 4 5 7 7 7 9 10 8 8
7 7 6 6 7 7 6 6 6 7 7 7 7 7 7 6 7 7 5 5 6 4 3 4 4 4 4 4 3 3 4 4 4 4 4 3 3 2 2 2 2 1 1 3 3 4 3 2 4 4 3 1 1 2 3 2 3 5 6 6 7 13 9 7 9 7 3 6 7 8 6 6 4 6
7 6 6 7 6 6 6 6 6 6 6 6 7 7 6 6 4 4 4 5 4 4 4 4 4 4 4 3 3 3 3 4 4 4 4 3 3 3 3 3 4 2 3 3 4 4 3 3 2 2 1 0 1 0 2 3 2 3 4 6 7 7 8 13 10 9 3 3 9 5 4 3 5 8
7 7 6 6 6 7 7 6 7 6 6 6 6 6 5 5 6 6 5 5 4 4 4 4 4 4 5 3 3 3 4 5 4 4 4 4 4 4 4 3 3 3 2 2 3 3 2 1 1 1 2 1 1 1 3 3 2 3 3 4 4 5 6 6 9 11 8 11 16 13 8 2 5 8
7 7 7 6 6 6 6 6 7 7 7 6 5 5 5 4 5 4 4 4 4 5 4 4 4 4 4 3 3 4 5 5 4 4 3 3 3 3 3 3 3 3 3 2 1 3 1 2 0 0 0 1 0 1 1 2 2 3 3 4 5 5 5 5 7 7 8 7 14 20 16 14 13 9
Wind_Direction
129 119 129 121 125 118 104 94 99 115 112 140 162 171 165 161 142 163 174 201 174 129 21 114 346 31 15 352 337 336 343 331 355 339 342 344 345 334 341 341 337 334 331 331 329 326 326 328 328 327 327 327 327 326 325 323 323 322 321 321 323 322 319 316 314 313 314 310 302 298 296 296 295 298
122 114 103 113 109 112 98 97 94 89 99 108 139 140 139 156 156 161 165 186 210 119 20 173 332 343 340 333 337 338 314 342 5 352 349 343 331 334 339 337 333 332 330 330 327 324 324 324 324 324 323 323 324 323 322 323 323 321 320 321 319 317 315 314 314 315 318 316 313 308 305 302 301 302
126 121 114 112 108 111 103 92 81 70 81 85 92 85 128 155 146 150 130 130 236 150 104 292 233 273 298 338 311 317 335 353 359 353 339 328 331 342 332 330 330 329 328 327 326 324 322 317 316 315 316 319 321 322 323 324 321 318 317 315 313 312 310 310 311 315 320 319 316 312 307 304 305 305
128 124 119 121 123 121 102 84 70 77 69 87 83 83 95 83 123 132 121 123 151 209 179 236 287 256 288 299 1 2 349 346 358 345 330 324 335 343 333 325 320 320 324 324 323 321 319 314 314 313 316 321 323 324 324 320 315 314 310 311 308 305 306 306 309 315 319 318 316 314 312 311 309 306
124 122 116 117 114 129 105 99 91 77 71 68 67 72 81 90 102 119 109 118 125 102 213 258 257 292 316 25 7 18 355 346 338 339 327 332 333 332 325 317 308 315 320 319 318 318 317 315 317 321 321 320 320 320 318 318 315 311 308 310 307 304 304 307 310 316 319 320 319 317 313 309 305 303
118 126 118 115 108 107 110 111 96 103 90 79 74 43 70 77 76 74 113 112 125 151 249 337 332 346 4 19 347 31 352 336 332 329 327 322 325 323 325 321 316 313 314 316 316 315 316 318 319 320 320 320 319 318 317 316 314 312 313 314 313 312 311 309 309 315 320 322 320 316 312 308 305 302
132 120 120 126 122 117 101 94 96 94 93 82 86 77 49 75 63 56 95 122 103 138 150 239 320 353 311 36 325 346 332 298 286 298 318 324 318 321 327 319 310 308 305 305 311 315 317 318 317 317 318 317 316 317 316 315 315 316 317 317 316 315 314 312 309 312 316 319 317 315 312 309 305 303
144 137 124 136 131 121 111 110 105 85 92 95 96 87 60 79 77 62 72 72 125 150 127 239 206 328 0 310 301 319 300 320 319 313 311 318 317 314 321 312 297 302 303 309 314 314 313 313 314 314 315 317 318 319 319 319 318 317 316 316 316 315 315 313 312 312 314 316 314 312 311 311 308 306
146 142 138 143 134 128 117 119 111 121 107 102 102 98 84 87 82 71 74 79 88 117 124 146 287 291 288 262 304 356 356 333 325 314 323 324 315 312 311 293 272 278 297 303 308 310 312 314 318 321 322 322 321 320 319 318 317 315 315 315 314 314 315 316 313 315 315 318 316 315 317 316 311 307
146 143 140 143 142 139 136 144 131 127 124 117 112 114 104 96 83 88 76 75 85 98 112 108 93 27 14 340 285 212 125 307 317 330 328 320 288 315 327 325 316 317 297 297 311 318 318 318 316 315 318 318 319 320 319 318 316 314 313 311 312 314 316 316 313 313 317 318 316 318 316 313 311 308
140 141 140 143 151 145 142 144 151 142 135 130 134 136 134 123 109 101 95 95 96 109 121 74 47 340 296 127 306 315 350 263 252 313 333 330 323 326 324 311 311 311 317 313 310 315 312 311 316 320 321 323 324 324 321 316 313 311 308 309 312 314 315 315 314 315 318 319 318 317 316 311 308 309
141 145 148 149 157 154 153 148 152 149 144 133 129 139 125 132 117 118 118 107 117 118 103 102 128 345 319 318 273 291 315 11 352 86 344 294 310 324 319 280 297 305 309 316 323 321 324 330 325 326 327 323 322 318 314 310 308 307 308 312 314 314 315 315 315 317 320 319 318 318 316 313 313 313
138 143 151 157 158 163 161 161 157 166 154 145 144 164 147 138 126 119 120 127 119 114 113 117 76 93 305 273 328 331 354 265 282 306 299 277 292 309 310 305 293 260 309 309 314 316 329 318 315 314 311 313 315 310 307 304 303 306 311 313 314 315 315 315 317 320 323 323 321 320 317 312 312 310
145 157 156 168 172 167 161 157 159 161 167 162 154 158 159 146 136 140 140 148 150 138 145 162 159 111 261 251 237 236 247 262 273 283 285 300 308 322 317 299 256 307 311 328 325 314 316 311 307 315 313 304 306 301 303 302 309 311 312 315 316 316 317 317 318 322 326 326 324 321 318 314 311 310
157 159 164 168 176 170 159 155 161 163 163 157 149 156 168 163 152 149 151 164 164 164 161 154 151 182 241 263 213 230 272 241 258 283 279 275 297 326 328 323 307 160 354 338 316 302 313 329 311 310 308 305 306 302 299 305 309 310 314 316 317 318 320 321 321 323 327 328 325 323 320 317 314 313
156 159 162 180 175 153 159 151 154 160 160 161 163 172 181 187 180 169 157 157 164 183 159 166 206 166 218 256 209 243 239 284 293 247 256 236 270 309 308 299 300 297 33 321 312 303 306 335 308 308 307 307 302 303 304 306 309 312 315 318 319 321 323 325 326 326 328 329 327 324 322 319 317 313
151 149 167 168 168 161 160 146 148 153 149 145 163 179 206 218 215 214 208 172 167 161 155 169 193 201 196 218 249 213 212 182 264 304 299 297 285 245 279 287 290 301 2 324 315 307 306 324 316 312 305 312 306 305 306 308 310 311 315 319 320 322 325 328 330 329 330 330 328 326 324 322 319 315
161 164 172 165 153 165 153 148 154 157 148 147 146 189 214 230 237 222 223 215 176 173 176 170 191 221 177 216 221 218 163 189 247 256 275 287 303 304 295 296 282 282 298 273 292 276 305 333 324 309 308 315 309 301 304 306 308 312 317 320 321 323 326 329 331 331 331 329 328 327 327 325 323 323
168 177 177 168 163 164 168 166 168 161 160 157 168 178 200 222 227 224 213 193 184 191 194 199 214 209 200 231 245 233 221 230 235 226 253 289 289 289 284 264 242 280 190 208 207 307 307 326 323 307 311 315 306 299 305 305 308 314 317 319 321 324 327 331 331 331 331 330 329 328 325 326 328 327
174 174 175 169 168 172 175 181 176 171 156 156 162 178 189 218 228 238 233 227 201 200 192 197 209 219 218 221 237 237 230 240 246 254 270 296 268 294 317 324 309 294 270 188 222 286 301 317 314 304 308 310 307 304 300 305 310 312 315 318 322 326 329 332 332 331 330 328 328 328 328 332 333 330
171 178 183 174 169 177 186 174 173 168 158 164 170 179 185 191 201 214 222 252 240 227 223 232 241 250 258 259 263 268 258 246 219 154 254 248 198 317 328 315 324 306 319 305 155 267 286 301 320 303 308 314 300 297 299 304 313 316 316 318 323 327 330 332 332 331 330 328 328 330 332 337 338 333
176 187 189 179 172 176 187 173 181 168 167 173 176 176 177 190 210 224 218 282 268 289 238 242 251 260 266 264 267 269 269 255 197 187 264 289 293 299 263 291 301 294 298 248 150 304 287 306 296 290 300 307 282 293 295 308 311 316 317 320 324 328 332 332 330 330 331 331 330 332 334 338 341 337
175 186 197 186 175 180 187 179 179 175 179 181 177 180 171 195 211 221 189 186 179 215 316 245 305 291 271 263 252 265 259 240 222 217 246 254 220 285 294 286 298 316 297 214 170 329 298 313 306 350 317 298 290 287 303 314 310 311 313 325 324 329 333 331 327 329 332 334 333 333 334 334 345 341
188 188 192 190 186 194 189 180 180 181 186 184 181 152 176 189 224 210 182 185 159 167 209 240 247 253 261 262 266 232 205 221 219 203 212 204 211 251 283 277 240 259 272 244 164 323 280 180 304 355 207 309 315 318 315 309 310 303 316 325 316 331 334 331 330 331 334 337 333 332 334 333 341 346
182 186 188 193 191 198 196 190 187 186 192 192 170 183 188 201 203 141 163 172 176 181 204 277 280 297 309 288 292 295 293 222 183 206 213 203 208 225 251 284 281 280 258 234 184 346 283 296 297 316 311 254 268 303 303 303 299 313 327 324 324 329 332 329 330 330 335 337 333 330 332 333 329 339
186 185 186 190 190 190 194 195 195 195 195 192 178 197 206 172 151 158 161 144 141 175 160 285 302 308 326 321 308 304 292 292 269 212 210 213 224 223 224 231 254 273 286 201 58 328 283 295 314 322 303 317 298 301 307 310 305 321 323 324 330 325 329 328 327 329 335 335 332 334 330 331 329 326
189 182 184 187 181 186 193 196 197 199 197 186 203 205 184 172 170 142 140 149 156 167 188 323 287 289 283 287 285 292 293 290 291 294 290 251 224 233 231 240 231 242 265 297 304 259 211 265 295 312 304 299 286 304 307 320 319 323 324 333 330 327 334 329 328 331 330 335 334 328 328 327 332 330
178 177 184 190 187 189 193 195 197 200 188 191 205 193 176 167 166 154 151 171 183 170 194 256 265 269 255 242 263 252 247 276 306 300 293 290 256 236 248 242 243 239 256 266 268 243 217 251 292 293 271 289 305 317 319 300 296 313 322 322 317 324 331 330 330 327 326 329 333 335 335 336 338 335
180 186 185 189 186 190 192 197 197 193 192 201 198 178 165 163 155 173 180 185 174 208 237 239 250 257 246 233 246 276 290 287 282 279 284 260 243 241 252 263 254 243 227 230 237 242 216 244 279 298 304 265 292 289 288 302 307 311 327 328 334 334 329 331 328 330 330 330 337 340 342 335 337 337
178 181 186 187 187 188 192 183 178 187 197 199 183 171 167 167 172 172 174 184 185 227 226 230 237 240 261 255 256 263 273 287 281 311 299 320 318 353 354 340 324 315 298 274 257 242 225 248 274 295 303 304 291 294 297 316 314 310 321 331 322 299 290 332 331 332 334 334 335 339 336 338 337 339
171 184 181 185 183 183 186 190 190 184 166 157 166 165 175 176 179 177 186 189 199 209 229 232 243 253 264 287 286 270 271 277 273 213 257 281 273 329 318 311 294 312 317 316 310 141 330 313 286 272 299 306 308 305 308 291 290 310 319 331 339 338 322 324 329 332 337 330 325 335 338 343 345 348
155 142 134 119 108 109 103 143 105 159 165 177 167 176 179 186 183 184 169 184 217 242 224 258 267 278 265 276 271 288 277 267 277 242 235 228 267 348 326 315 301 307 307 315 320 337 346 333 330 299 234 248 275 298 319 308 291 306 313 323 329 318 318 330 330 331 336 324 324 348 347 346 347 345
95 107 129 135 143 149 157 159 183 177 173 186 186 173 178 182 181 177 182 200 214 214 192 232 242 258 276 269 272 273 280 268 270 201 231 244 241 313 131 241 270 300 319 312 316 325 334 330 328 316 258 252 244 243 263 308 314 326 325 325 330 324 326 328 332 332 330 326 335 344 344 346 347 344
144 162 166 177 172 170 164 177 188 189 188 186 190 202 194 183 179 190 196 213 226 200 213 226 232 247 255 273 271 268 258 279 269 220 215 236 184 238 255 286 284 282 260 286 302 323 329 327 330 325 317 288 224 220 211 229 301 322 328 324 327 329 322 327 330 332 335 339 335 339 346 345 344 350
160 165 176 185 187 184 181 189 196 191 184 195 196 199 189 192 194 197 199 215 209 209 219 221 233 244 233 254 260 262 260 264 284 270 215 205 197 229 252 271 278 294 310 308 306 331 333 328 337 338 335 349 347 333 191 214 317 314 317 323 334 327 324 327 328 329 331 339 348 341 336 342 350 351
183 178 180 182 190 187 192 201 197 187 185 193 195 187 179 201 197 193 214 205 185 204 206 218 224 223 224 231 247 249 256 260 269 272 257 221 219 235 223 243 260 283 287 278 293 331 326 319 345 343 340 336 348 334 335 180 178 306 319 320 332 330 325 328 325 319 341 342 344 354 345 350 341 344
179 186 183 187 191 187 199 197 189 187 192 190 190 187 193 200 198 205 206 149 187 202 213 202 222 218 226 231 247 249 249 237 262 256 253 234 213 229 268 263 245 258 293 288 301 317 302 315 339 345 339 338 341 332 303 315 279 219 256 327 322 330 328 324 327 337 339 339 339 355 347 329 340 339
186 176 188 194 190 187 199 191 175 189 189 195 190 190 203 209 192 183 156 174 200 200 201 208 230 227 231 218 234 251 237 223 235 259 252 236 244 248 225 253 284 297 293 292 298 306 296 280 311 322 334 319 321 319 320 319 329 326 153 22 318 318 322 327 335 344 332 339 346 336 323 341 340 332
187 185 191 194 197 193 195 197 189 192 191 188 191 195 197 199 200 185 182 203 196 204 209 210 219 218 225 221 218 238 253 244 229 233 239 233 212 226 245 229 264 265 297 305 309 310 310 291 320 322 310 289 289 305 299 300 292 306 316 319 283 311 337 341 329 327 335 340 338 327 327 306 267 277
197 193 193 195 205 198 200 183 193 194 192 195 197 196 192 197 192 189 191 204 213 218 211 221 227 224 223 221 220 220 233 235 235 227 221 229 214 209 236 228 237 271 299 287 305 307 321 306 323 321 305 264 264 271 294 276 264 274 280 313 112 29 326 337 337 331 337 346 325 328 333 342 357 355
191 194 203 195 196 195 194 196 195 191 200 198 199 200 203 202 196 204 207 210 200 198 209 221 213 220 241 224 204 196 227 235 229 230 216 227 233 224 223 211 241 188 258 285 279 291 291 334 312 295 275 281 280 265 241 300 333 331 334 326 332 19 9 344 324 322 346 324 331 342 343 345 336 342
186 197 190 188 195 199 196 196 193 191 198 193 197 198 201 201 213 214 215 217 212 217 221 228 225 217 239 236 213 196 217 231 225 221 209 205 231 231 200 199 242 192 201 261 271 273 301 16 322 318 311 299 311 339 3 335 306 319 319 319 325 337 359 358 354 349 332 359 358 2 338 325 325 354
189 195 196 196 198 196 199 199 194 195 200 193 205 207 206 209 207 206 210 216 215 209 220 228 223 222 234 221 205 201 212 228 221 219 206 204 207 229 230 216 221 213 214 246 268 278 296 318 320 335 314 25 19 333 336 325 296 287 310 329 333 331 330 348 351 348 294 82 65 42 351 334 339 3
190 193 200 188 190 198 201 200 198 197 196 194 202 195 200 204 211 214 214 216 209 216 217 223 227 224 235 217 194 203 213 222 207 204 214 216 207 211 221 238 216 224 218 246 282 286 293 309 350 336 331 348 340 332 337 323 331 334 318 312 309 330 341 336 337 351 0 10 15 25 27 337 263 254
188 192 189 190 194 195 198 198 196 193 191 195 180 195 201 205 215 214 214 215 219 222 217 225 230 233 223 199 188 212 220 214 209 209 216 222 205 208 212 226 229 234 236 218 243 284 310 324 330 24 249 304 268 293 290 284 298 319 320 319 327 339 341 343 349 353 351 355 355 354 0 12 12 6